Jacksonville, FL

7:04 AM EDT on June 19, 2018 (GMT -0400)
Jacksonville International

Weather History for KJAX - November, 2017

Change the Weather History Date:

Tuesday, November 14, 2017

  Actual Average Record
Temperature  
Mean Temperature 61 °F 63 °F  
Max Temperature 69 °F 74 °F 84 °F (2008)
Min Temperature 52 °F 51 °F 31 °F (1984)
Degree Days  
Heating Degree Days 4 5  
Month to date heating degree days 10 48  
Since 1 July heating degree days 42 76  
Cooling Degree Days 0 2  
Month to date cooling degree days 60 36  
Year to date cooling degree days 3004 2619  
Growing Degree Days 10 (Base 50)    
Moisture  
Dew Point 53 °F    
Average Humidity 77    
Maximum Humidity 93    
Minimum Humidity 61    
Precipitation  
Precipitation 0.00 in 0.07 in 2.21 in (1941)
Month to date precipitation 0.19 1.03  
Year to date precipitation 65.27 48.51  
Snow  
Snow 0.00 in 0.00 in 0.00 in (2001)
Month to date snowfall 0.0 0.0  
Since 1 July snowfall 0.0 0.0  
Since 1 September snowfall 0.0 0.0  
Snow Depth 0.00 in    
Sea Level Pressure  
Sea Level Pressure 30.14 in    
Wind  
Wind Speed 11 mph (North)    
Max Wind Speed 20 mph    
Max Gust Speed 26 mph    
Visibility 10 miles    
Events      
T = Trace of Precipitation, MM = Missing Value Source: NWS Daily Summary

Daily Weather History Graph

Daily Weather History Graph

Search for Another Location

Airport or City:

Astronomy

Nov. 14, 2017 Rise Set
Actual Time 6:52 AM EST 5:30 PM EST
Civil Twilight 6:26 AM EST 5:55 PM EST
Nautical Twilight 5:57 AM EST 6:24 PM EST
Astronomical Twilight 5:29 AM EST 6:53 PM EST
Moon 3:11 AM EST (11/14) 3:35 PM EST (11/14)
Length of Visible Light 11h 28m
Length of Day
10h 38m
Waning Crescent, 14% of the Moon is Illuminated
Nov 14
Waning Crescent
Nov 18
New
Nov 26
First Quarter
Dec 3
Full
Dec 10
Last Quarter

Hourly Weather History & Observations

Time (EST) Temp. Dew Point Humidity Pressure Visibility Wind Dir Wind Speed Gust Speed Precip Events Conditions
12:56 AM 59.0 °F 55.9 °F 90% 30.16 in 10.0 mi North 8.1 mph - N/A   Partly Cloudy
1:56 AM 57.9 °F 55.0 °F 90% 30.15 in 10.0 mi North 8.1 mph - N/A   Clear
2:56 AM 57.0 °F 54.0 °F 89% 30.14 in 10.0 mi North 9.2 mph - N/A   Clear
3:56 AM 55.9 °F 53.1 °F 90% 30.14 in 10.0 mi North 9.2 mph - N/A   Clear
4:56 AM 55.0 °F 53.1 °F 93% 30.14 in 10.0 mi North 6.9 mph - N/A   Clear
5:56 AM 55.0 °F 53.1 °F 93% 30.14 in 10.0 mi North 8.1 mph - N/A   Clear
6:41 AM 55.0 °F 53.1 °F 93% 30.14 in 9.0 mi North 6.9 mph - N/A   Partly Cloudy
6:56 AM 55.0 °F 53.1 °F 93% 30.15 in 8.0 mi North 8.1 mph - N/A   Partly Cloudy
7:56 AM 57.0 °F 55.0 °F 93% 30.16 in 9.0 mi North 9.2 mph - N/A   Scattered Clouds
8:56 AM 62.1 °F 55.9 °F 80% 30.17 in 10.0 mi North 6.9 mph - N/A   Scattered Clouds
9:56 AM 66.9 °F 55.9 °F 68% 30.17 in 10.0 mi NNE 16.1 mph - N/A   Scattered Clouds
10:48 AM 69.1 °F 55.9 °F 63% 30.17 in 10.0 mi NNE 13.8 mph - N/A   Mostly Cloudy
10:56 AM 69.1 °F 55.9 °F 63% 30.17 in 10.0 mi NE 16.1 mph 25.3 mph N/A   Mostly Cloudy
11:56 AM 68.0 °F 55.9 °F 65% 30.16 in 10.0 mi NNE 18.4 mph - N/A   Mostly Cloudy
12:56 PM 66.9 °F 55.9 °F 68% 30.14 in 10.0 mi NNE 15.0 mph - N/A   Mostly Cloudy
1:56 PM 64.9 °F 54.0 °F 68% 30.12 in 10.0 mi NNE 15.0 mph - N/A   Overcast
2:56 PM 64.9 °F 54.0 °F 68% 30.12 in 10.0 mi NNE 17.3 mph 23.0 mph N/A   Mostly Cloudy
3:56 PM 62.1 °F 52.0 °F 70% 30.12 in 10.0 mi NE 16.1 mph - N/A   Mostly Cloudy
4:12 PM 64.0 °F 50.0 °F 60% 30.12 in 10.0 mi NNE 15.0 mph 21.9 mph N/A   Scattered Clouds
4:56 PM 62.1 °F 51.1 °F 67% 30.12 in 10.0 mi NNE 15.0 mph 20.7 mph N/A   Scattered Clouds
5:56 PM 57.9 °F 50.0 °F 75% 30.12 in 10.0 mi North 8.1 mph - N/A   Partly Cloudy
6:56 PM 55.9 °F 48.9 °F 77% 30.13 in 10.0 mi North 8.1 mph - N/A   Partly Cloudy
7:56 PM 54.0 °F 48.0 °F 80% 30.13 in 10.0 mi North 5.8 mph - N/A   Partly Cloudy
8:56 PM 53.1 °F 48.0 °F 83% 30.14 in 10.0 mi North 6.9 mph - N/A   Partly Cloudy
9:56 PM 53.1 °F 46.9 °F 80% 30.13 in 10.0 mi North 8.1 mph - N/A   Partly Cloudy
10:56 PM 52.0 °F 46.9 °F 83% 30.12 in 10.0 mi North 8.1 mph - N/A   Partly Cloudy
11:56 PM 52.0 °F 46.9 °F 83% 30.11 in 10.0 mi NNW 8.1 mph - N/A   Partly Cloudy